GSAT0232 (GALILEO 32)

Last updated on Wed Sep 09 2026 00:02:49 GMT+0000 (Coordinated Universal Time)

1 61182U 24167A 26250.67496997 .00000016 00000+0 00000+0 0 9995 2 61182 55.1671 219.0516 0005794 235.2321 318.1463 1.70473446 12287
UTC large
Height (km)
Speed (km/s)
/
Latitude / Longitude
Inclination (degrees)
Orbital Period (minutes)
Azimuth
Elevation
Range (km)
Doppler Factor

Next 0 passes for location: London (51.5072 / 0.1276)

No passes found over London.
GSAT0232 (GALILEO 32)